Le Mars, IA

1:50 PM CDT on September 15, 2019 (GMT -0500)
Le Mars Municipal

Weather History for KLRJ - July, 2019

Change the Weather History Date:

Saturday, July 13, 2019

  Actual Average Record
Temperature  
Mean Temperature 78 °F -  
Max Temperature 87 °F 88 °F 101 °F (1980)
Min Temperature 69 °F 64 °F 42 °F (2007)
Cooling Degree Days 13    
Growing Degree Days 28 (Base 50)    
Moisture  
Dew Point 71 °F    
Average Humidity 79    
Maximum Humidity 100    
Minimum Humidity 58    
Precipitation  
Precipitation 0.08 in - - ()
Sea Level Pressure  
Sea Level Pressure 29.99 in    
Wind  
Wind Speed 7 mph (South)    
Max Wind Speed 22 mph    
Max Gust Speed 29 mph    
Visibility 10 miles    
Events Rain    
Averages and records for this station are not official NWS values.
T = Trace of Precipitation, MM = Missing Value Source: NWS Daily Summary

Daily Weather History Graph

Daily Weather History Graph

Search for Another Location

Airport or City:

Astronomy

Jul. 13, 2019 Rise Set
Actual Time 5:58 AM CDT 9:02 PM CDT
Civil Twilight 5:24 AM CDT 9:36 PM CDT
Nautical Twilight 4:40 AM CDT 10:20 PM CDT
Astronomical Twilight 3:48 AM CDT 11:11 PM CDT
Moon 6:25 PM CDT (7/13) 3:20 AM CDT (7/13)
Length of Visible Light 16h 12m
Length of Day
15h 04m
Waxing Gibbous, 90% of the Moon is Illuminated
Jul 13
Waxing Gibbous
Jul 16
Full
Jul 24
Last Quarter
Jul 31
New
Aug 7
First Quarter

Hourly Weather History & Observations

Time (CDT) Temp. Heat Index Dew Point Humidity Pressure Visibility Wind Dir Wind Speed Gust Speed Precip Events Conditions
12:15 AM 75.2 °F - 73.4 °F 94% 29.94 in 10.0 mi SSE 3.5 mph - N/A   Clear
12:35 AM 75.2 °F - 73.4 °F 94% 29.95 in 10.0 mi Calm Calm - N/A   Clear
12:55 AM 75.2 °F - 73.4 °F 94% 29.95 in 10.0 mi Calm Calm - N/A   Clear
1:15 AM 75.2 °F - 73.4 °F 94% 29.95 in 10.0 mi Calm Calm - N/A   Clear
1:35 AM 73.4 °F - 71.6 °F 94% 29.96 in 10.0 mi SSE 4.6 mph - N/A   Mostly Cloudy
1:55 AM 73.4 °F - 71.6 °F 94% 29.95 in 10.0 mi Calm Calm - N/A   Overcast
2:15 AM 73.4 °F - 71.6 °F 94% 29.96 in 10.0 mi SSE 3.5 mph - N/A   Mostly Cloudy
2:35 AM 73.4 °F - 71.6 °F 94% 29.96 in 10.0 mi South 4.6 mph - N/A   Overcast
2:55 AM 73.4 °F - 71.6 °F 94% 29.95 in 10.0 mi SSE 4.6 mph - N/A   Overcast
3:15 AM 73.4 °F - 71.6 °F 94% 29.95 in 10.0 mi Calm Calm - N/A   Overcast
3:35 AM 73.4 °F - 71.6 °F 94% 29.94 in 10.0 mi Calm Calm - N/A   Overcast
3:55 AM 73.4 °F - 71.6 °F 94% 29.95 in 10.0 mi South 3.5 mph - N/A   Overcast
4:15 AM 73.4 °F - 71.6 °F 94% 29.96 in 10.0 mi Calm Calm - N/A   Overcast
4:35 AM 73.4 °F - 71.6 °F 94% 29.99 in 10.0 mi WSW 4.6 mph - N/A   Overcast
4:55 AM 73.4 °F - 71.6 °F 94% 29.98 in 7.0 mi South 8.1 mph - 0.01 in Rain Light Rain
5:15 AM 73.4 °F - 73.4 °F 100% 30.00 in 10.0 mi SSW 8.1 mph - N/A   Overcast
5:35 AM 71.6 °F - 71.6 °F 100% 30.02 in 5.0 mi SSW 12.7 mph - N/A Rain Light Rain
5:55 AM 71.6 °F - 71.6 °F 100% 30.04 in - South 8.1 mph 17.3 mph 0.02 in   Unknown
6:15 AM 71.6 °F - 71.6 °F 100% 30.04 in 9.0 mi SSW 5.8 mph - N/A Rain Light Rain
6:35 AM 71.6 °F - 69.8 °F 94% 30.02 in 9.0 mi SSW 13.8 mph - N/A   Overcast
6:55 AM 69.8 °F - 68.0 °F 94% 29.99 in 9.0 mi South 10.4 mph - 0.03 in   Mostly Cloudy
7:15 AM 71.6 °F - 66.2 °F 83% 29.97 in 10.0 mi South 17.3 mph 24.2 mph N/A   Partly Cloudy
7:35 AM 73.4 °F - 64.4 °F 73% 29.96 in 10.0 mi SSE 12.7 mph - N/A   Partly Cloudy
7:55 AM 73.4 °F - 68.0 °F 83% 29.94 in 10.0 mi NNE 9.2 mph - 0.02 in   Clear
8:15 AM 75.2 °F - 66.2 °F 73% 29.93 in 10.0 mi ENE 12.7 mph - N/A   Clear
8:35 AM 73.4 °F - 66.2 °F 78% 29.91 in 10.0 mi East 13.8 mph - N/A   Clear
8:55 AM 75.2 °F - 66.2 °F 73% 29.90 in 10.0 mi ENE 9.2 mph - N/A   Clear
9:15 AM 75.2 °F - 68.0 °F 78% 29.91 in 10.0 mi Calm Calm - N/A   Clear
9:35 AM 75.2 °F - 68.0 °F 78% 29.98 in 10.0 mi WSW 9.2 mph 20.7 mph N/A   Clear
9:55 AM 75.2 °F - 68.0 °F 78% 30.02 in 10.0 mi WSW 13.8 mph 23.0 mph N/A   Clear
10:15 AM 75.2 °F - 68.0 °F 78% 30.02 in 10.0 mi West 13.8 mph 19.6 mph N/A   Clear
10:35 AM 78.8 °F - 68.0 °F 69% 30.03 in 10.0 mi West 9.2 mph 18.4 mph N/A   Scattered Clouds
10:55 AM 77.0 °F - 68.0 °F 74% 30.03 in 10.0 mi West 6.9 mph - N/A   Mostly Cloudy
11:15 AM 80.6 °F 83.9 °F 69.8 °F 70% 30.03 in 10.0 mi WSW 6.9 mph - N/A   Partly Cloudy
11:35 AM 80.6 °F 83.9 °F 69.8 °F 70% 30.03 in 10.0 mi Variable 6.9 mph - N/A   Clear
11:55 AM 82.4 °F 86.3 °F 69.8 °F 66% 30.03 in 10.0 mi SSW 11.5 mph - N/A   Clear
12:15 PM 82.4 °F 87.2 °F 71.6 °F 70% 30.03 in 10.0 mi South 16.1 mph - N/A   Clear
12:35 PM 80.6 °F 83.9 °F 69.8 °F 70% 30.02 in 10.0 mi South 16.1 mph 23.0 mph N/A   Clear
12:55 PM 82.4 °F 85.4 °F 68.0 °F 62% 30.02 in 10.0 mi South 12.7 mph - N/A   Clear
1:15 PM 84.2 °F 88.4 °F 69.8 °F 62% 30.02 in 10.0 mi South 16.1 mph - N/A   Clear
1:35 PM 84.2 °F 88.4 °F 69.8 °F 62% 30.03 in 10.0 mi South 13.8 mph 19.6 mph N/A   Clear
1:55 PM 86.0 °F 90.4 °F 69.8 °F 58% 30.02 in 10.0 mi South 16.1 mph 23.0 mph N/A   Clear
2:15 PM 86.0 °F 90.4 °F 69.8 °F 58% 30.01 in 10.0 mi South 21.9 mph 28.8 mph N/A   Clear
2:35 PM 86.0 °F 90.4 °F 69.8 °F 58% 30.01 in 10.0 mi South 19.6 mph - N/A   Clear
2:55 PM 86.0 °F 90.4 °F 69.8 °F 58% 30.01 in 10.0 mi South 18.4 mph - N/A   Clear
3:15 PM 86.0 °F 90.4 °F 69.8 °F 58% 30.01 in 10.0 mi South 20.7 mph - N/A   Clear
3:35 PM 86.0 °F 90.4 °F 69.8 °F 58% 30.00 in 10.0 mi South 17.3 mph 24.2 mph N/A   Clear
3:55 PM 87.8 °F 93.8 °F 71.6 °F 58% 30.00 in 10.0 mi South 13.8 mph - N/A   Clear
4:15 PM 87.8 °F 93.8 °F 71.6 °F 58% 30.00 in 10.0 mi South 16.1 mph - N/A   Clear
4:35 PM 87.8 °F 95.6 °F 73.4 °F 62% 30.00 in 10.0 mi South 15.0 mph 21.9 mph N/A   Clear
4:55 PM - - - N/A% 30.00 in 10.0 mi South 10.4 mph 18.4 mph N/A   Clear
5:15 PM 87.8 °F 95.6 °F 73.4 °F 62% 30.01 in 10.0 mi South 12.7 mph - N/A   Partly Cloudy
5:35 PM 86.0 °F 93.4 °F 73.4 °F 66% 30.00 in 10.0 mi South 10.4 mph - N/A   Partly Cloudy
5:55 PM 86.0 °F 93.4 °F 73.4 °F 66% 30.00 in 10.0 mi South 12.7 mph - N/A   Partly Cloudy
6:15 PM 86.0 °F 93.4 °F 73.4 °F 66% 30.00 in 10.0 mi South 9.2 mph - N/A   Clear
6:35 PM 86.0 °F 93.4 °F 73.4 °F 66% 30.01 in 10.0 mi SSE 8.1 mph - N/A   Clear
6:55 PM 86.0 °F 93.4 °F 73.4 °F 66% 30.01 in 10.0 mi South 9.2 mph - N/A   Clear
7:15 PM 84.2 °F 92.3 °F 75.2 °F 74% 30.01 in 10.0 mi SE 6.9 mph - N/A   Clear
7:35 PM 84.2 °F 92.3 °F 75.2 °F 74% 30.01 in 10.0 mi SE 8.1 mph - N/A   Clear
7:55 PM 84.2 °F 92.3 °F 75.2 °F 74% 30.02 in 10.0 mi ESE 5.8 mph - N/A   Clear
8:15 PM 82.4 °F 89.5 °F 75.2 °F 79% 30.02 in 10.0 mi ESE 5.8 mph - N/A   Clear
8:35 PM 82.4 °F 89.5 °F 75.2 °F 79% 30.02 in 10.0 mi SE 5.8 mph - N/A   Clear
8:55 PM 80.6 °F 86.2 °F 75.2 °F 84% 30.01 in 10.0 mi ESE 6.9 mph - N/A   Clear
9:15 PM 80.6 °F 86.2 °F 75.2 °F 84% 30.01 in 10.0 mi ESE 6.9 mph - N/A   Clear
9:35 PM 80.6 °F 86.2 °F 75.2 °F 84% 30.03 in 10.0 mi East 6.9 mph - N/A   Clear
9:55 PM 80.6 °F 86.2 °F 75.2 °F 84% 30.02 in 10.0 mi East 9.2 mph - N/A   Clear
10:15 PM 78.8 °F - 75.2 °F 89% 30.02 in 10.0 mi SE 10.4 mph - N/A   Clear
10:35 PM 78.8 °F - 75.2 °F 89% 30.02 in 10.0 mi ESE 6.9 mph - N/A   Clear
10:55 PM 77.0 °F - 75.2 °F 94% 30.01 in 10.0 mi SE 10.4 mph - N/A   Clear
11:15 PM 77.0 °F - 75.2 °F 94% 30.01 in 10.0 mi SSE 11.5 mph - N/A   Clear
11:35 PM 77.0 °F - 73.4 °F 89% 30.01 in 10.0 mi SSE 8.1 mph - N/A   Clear
11:55 PM 77.0 °F - 73.4 °F 89% 30.02 in 10.0 mi SSE 6.9 mph - N/A   Clear